Flag for United Kingdom Weather past 2 weeks in Derby, England, United Kingdom

Now
46 °F

Clear.


Feels Like: 38 °F
Forecast: 46 / 59 °F
Wind: 24 mph from Southwest

Location: East Midlands

Current Time: Mar 7, 2015 at 2:14:58 AM

Latest Report: Mar 7, 2015 at 1:20 AM


Visibility: 10 mi

Pressure: 30.18 "Hg

Humidity: 71%

Dew point: 37 °F

Location of DerbyLocation

Historic Weather in Derby — Graph

°F

Derby temperature yesterday

Maximum temperature yesterday: 54 °F (at 2:20 PM)
Minimum temperature yesterday: 43 °F (at 6:50 AM)
Average temperature yesterday: 47 °F

Past Weeks' High & Low Weather Summary

 TemperatureHumidityPressure
High54 °F (Mar 6, 2:20 PM)100% (Feb 20, 3:20 AM)30.66 "Hg (Feb 20, 3:20 AM)
Low32 °F (Feb 22, 2:20 AM)49% (Mar 2, 3:50 PM)29.09 "Hg (Feb 23, 6:20 PM)
Average42 °F78%29.80 "Hg
* Reported Feb 20 1:20 AM — Mar 7 1:20 AM, Derby, Weather by CustomWeather, © 2015

Note: Actual official high and low records may vary slightly from our data, if they occured in-between our weather recording intervals... More about our weather records

Advertising

Derby weather history for previous 24 hours

 ConditionsComfort  
Time TempWeatherWind HumidityBarometerVisibility
1:20 AM
Sat, Mar 7
46 °FClear.24 mph71%30.18 "Hg10 mi
12:50 AM46 °FClear.20 mph71%30.21 "Hg10 mi
12:20 AM45 °FClear.20 mph76%30.21 "Hg10 mi
11:50 PM
Fri, Mar 6
45 °FClear.20 mph76%30.21 "Hg10 mi
11:20 PM45 °FClear.20 mph76%30.24 "Hg10 mi
10:50 PM45 °FClear.22 mph76%30.24 "Hg10 mi
10:20 PM45 °FClear.20 mph76%30.24 "Hg10 mi
9:50 PM46 °FClear.21 mph71%30.27 "Hg10 mi
9:20 PM46 °FClear.20 mph71%30.27 "Hg10 mi
8:50 PM46 °FClear.18 mph71%30.30 "Hg10 mi
8:20 PM46 °FClear.18 mph71%30.27 "Hg10 mi
7:50 PM48 °FClear.17 mph66%30.30 "Hg10 mi
7:20 PM48 °FClear.16 mph66%30.30 "Hg10 mi
6:50 PM48 °FClear.17 mph62%30.30 "Hg10 mi
6:20 PM50 °FClear.18 mph54%30.30 "Hg10 mi
5:50 PM50 °FSunny.17 mph58%30.30 "Hg10 mi
5:20 PM52 °FPassing clouds.21 mph54%30.27 "HgN/A
4:50 PM54 °FSunny.18 mph54%30.30 "Hg10 mi
4:20 PM54 °FSunny.18 mph51%30.30 "Hg10 mi
3:50 PM54 °FSunny.20 mph54%30.30 "Hg10 mi
3:20 PM54 °FSunny.21 mph54%30.33 "Hg10 mi
2:50 PM54 °FSunny.21 mph54%30.36 "Hg10 mi
2:20 PM54 °FSunny.21 mph54%30.36 "Hg10 mi
1:50 PM52 °FSunny.21 mph58%30.39 "Hg10 mi
1:20 PM52 °FSunny.22 mph58%30.39 "Hg10 mi
12:50 PM50 °FPassing clouds.21 mph62%30.42 "HgN/A
12:20 PM50 °FPassing clouds.22 mph62%30.42 "HgN/A
11:50 AM50 °FScattered clouds.21 mph62%30.42 "HgN/A
11:20 AM48 °FScattered clouds.18 mph66%30.45 "HgN/A
10:50 AM46 °FPartly sunny.17 mph71%30.45 "HgN/A
10:20 AM46 °FPartly sunny.18 mph71%30.45 "HgN/A
9:50 AM46 °FPartly sunny.15 mph71%30.48 "HgN/A
9:20 AM46 °FPartly sunny.15 mph71%30.51 "HgN/A
8:50 AM45 °FPartly sunny.14 mph76%30.51 "HgN/A
8:20 AM45 °FPartly sunny.12 mph76%30.51 "HgN/A
7:50 AM45 °FPartly sunny.13 mph76%30.51 "HgN/A
7:20 AM43 °FPartly sunny.9 mph81%30.51 "HgN/A
6:50 AM43 °FPartly sunny.10 mph76%30.51 "HgN/A
5:50 AM45 °FPassing clouds.13 mph71%30.51 "HgN/A
5:20 AM45 °FPassing clouds.12 mph71%30.51 "HgN/A
4:50 AM45 °FPassing clouds.12 mph71%30.51 "HgN/A
4:20 AM45 °FPassing clouds.10 mph71%30.51 "HgN/A
3:50 AM45 °FPassing clouds.13 mph71%30.51 "HgN/A
3:20 AM45 °FPassing clouds.12 mph71%30.51 "HgN/A
2:50 AM45 °FPassing clouds.13 mph71%30.54 "HgN/A
2:20 AM45 °FPassing clouds.13 mph71%30.54 "HgN/A
Weather by CustomWeather, © 2015

See weather overviewHow to use our weather pages